Temp
66 70 77 78 78 78 79 78 78 78 78 78 79 78 78 78 78 78 77 76 76 77 77 78 78 78 78 77 76 75 75 74 74 74 74 75 75 75 76 75 74 73 76
71 72 76 78 78 78 78 78 77 77 77 78 78 78 78 78 77 77 77 76 76 76 77 78 78 78 78 77 75 74 74 73 73 72 72 72 73 74 74 74 74 73 75
71 73 75 77 77 77 77 77 77 77 77 78 78 78 78 77 77 76 76 75 75 76 76 77 76 76 76 75 75 73 73 72 72 71 70 68 71 74 74 74 74 74 74
72 74 75 76 76 77 77 77 77 77 77 77 77 77 77 77 76 76 76 75 75 75 75 76 76 75 75 74 73 73 72 71 70 68 63 65 72 74 74 74 74 74 74
72 74 75 76 76 76 76 77 77 77 77 77 77 77 77 76 76 75 75 74 73 74 74 75 75 74 74 73 72 72 71 70 67 63 60 61 67 73 73 73 72 73 73
71 72 74 75 75 76 76 76 76 77 76 76 76 76 76 76 75 75 73 72 72 73 74 74 74 73 72 72 71 71 69 67 63 57 58 67 66 73 72 72 72 72 72
70 72 72 75 75 75 75 75 76 76 76 76 76 76 76 75 75 73 72 71 72 73 73 74 73 72 71 71 70 69 67 65 55 55 58 61 67 72 72 71 71 71 71
70 72 72 74 74 75 75 75 75 75 76 75 75 75 75 75 74 72 71 71 72 73 73 73 72 72 71 70 69 68 66 63 58 56 58 63 70 72 71 71 70 70 70
69 71 72 73 74 73 73 73 74 75 75 74 74 74 73 73 72 72 71 71 71 72 73 73 72 71 70 69 68 66 65 63 54 55 60 61 70 71 71 70 70 69 69
67 69 70 71 71 72 72 72 72 73 73 73 73 72 71 70 70 71 70 70 71 72 72 71 71 70 69 67 66 65 64 61 53 55 56 65 69 70 69 69 69 68 68
64 68 68 70 70 71 71 70 71 71 71 71 70 69 68 66 65 64 66 69 70 71 71 70 70 68 67 65 65 63 58 50 52 53 56 68 69 69 68 68 68 67 67
62 65 68 69 69 70 71 69 69 69 70 70 67 64 60 58 60 62 64 67 69 69 70 69 68 66 57 53 57 56 49 49 51 52 57 67 68 68 67 67 66 66 66
62 65 68 69 70 68 68 67 67 69 68 65 61 60 59 60 61 60 62 59 59 61 59 58 52 49 47 48 46 47 47 47 48 50 62 67 67 67 66 66 66 66 65
61 65 67 68 68 68 67 66 66 67 62 62 60 59 58 57 56 54 51 49 48 48 48 45 45 44 45 46 46 45 45 45 46 48 58 65 66 66 66 66 65 65 65
61 63 66 68 68 68 66 66 65 64 62 61 59 58 59 56 55 52 49 48 45 47 47 45 44 45 45 45 45 45 44 44 45 46 48 62 63 64 65 65 65 64 64
62 62 64 65 66 66 66 66 64 63 61 59 58 57 56 56 54 52 48 46 44 45 43 43 44 42 42 44 43 44 43 43 44 44 45 49 61 62 63 63 63 64 64
64 64 63 64 66 65 64 63 62 62 58 58 57 55 55 54 53 51 48 46 44 44 44 43 41 43 41 44 42 42 42 42 42 43 43 43 46 59 61 61 61 61 62
64 62 64 65 62 62 61 61 61 58 59 58 56 54 54 52 51 50 48 46 44 44 44 44 43 40 40 40 39 40 40 42 42 42 42 41 41 43 52 58 59 59 60
63 63 62 63 61 61 61 61 59 58 57 57 55 54 53 52 51 50 48 45 45 45 44 46 40 41 41 39 40 38 39 40 41 44 41 41 42 41 41 54 55 56 57
62 63 62 62 62 60 60 59 57 56 55 55 54 54 53 52 51 49 47 45 45 44 43 43 41 40 39 40 45 40 38 38 39 39 40 43 41 41 40 41 39 42 54
61 61 61 60 60 59 57 55 54 51 51 51 54 52 53 51 50 49 47 45 45 46 44 43 41 41 38 37 38 37 37 38 38 37 38 38 40 41 39 39 38 38 39
60 61 60 59 59 60 58 57 56 52 52 51 52 52 53 51 50 50 48 46 46 43 42 43 42 39 38 37 37 35 36 38 38 38 37 39 38 39 40 40 39 39 37
59 60 60 59 59 59 58 56 53 51 50 48 48 51 50 51 50 50 49 47 45 45 43 44 43 42 38 36 36 38 34 37 35 35 37 36 37 36 37 38 40 40 38
59 61 60 60 60 60 58 55 53 51 49 50 49 52 51 51 50 49 48 47 46 45 44 44 44 40 40 37 35 38 34 36 37 36 35 35 36 38 36 36 37 38 38
61 60 60 60 59 57 57 56 54 52 53 50 49 49 50 50 50 49 48 47 46 45 45 43 41 41 41 37 36 33 34 34 33 35 32 34 34 35 35 36 36 36 37
60 60 60 59 57 56 56 54 55 52 50 48 48 46 47 48 48 48 48 47 47 45 43 42 43 40 39 37 36 36 36 38 35 34 33 32 33 34 33 34 34 34 35
MSLP
1009.91 1009.70 1009.99 1010.44 1010.81 1011.36 1011.47 1012.08 1012.53 1012.93 1013.18 1013.44 1013.91 1014.31 1014.79 1015.22 1015.61 1016.13 1016.53 1016.77 1016.80 1016.94 1017.20 1017.44 1017.63 1017.79 1018.10 1018.23 1018.54 1018.85 1019.03 1019.33 1019.62 1019.72 1019.95 1020.13 1019.84 1020.34 1020.58 1020.41 1020.26 1019.99 1019.74
1008.84 1009.13 1009.75 1010.27 1010.77 1011.33 1011.57 1011.88 1012.64 1012.92 1013.39 1013.67 1014.04 1014.45 1014.79 1015.28 1015.70 1016.42 1016.78 1017.13 1017.15 1017.18 1017.50 1017.68 1017.95 1018.23 1018.37 1018.63 1018.91 1019.33 1019.57 1019.95 1020.01 1020.16 1020.41 1020.42 1020.69 1021.11 1021.23 1021.17 1021.00 1020.71 1020.55
1008.36 1009.06 1009.62 1010.33 1010.86 1011.18 1011.91 1011.87 1012.58 1012.96 1013.47 1013.86 1014.13 1014.62 1014.82 1015.37 1016.04 1016.64 1017.01 1017.48 1017.58 1017.54 1017.78 1017.89 1018.36 1018.68 1018.98 1019.25 1019.35 1019.84 1020.17 1020.38 1020.60 1020.70 1021.14 1021.11 1021.20 1021.69 1021.84 1021.69 1021.62 1021.42 1021.16
1008.03 1008.46 1009.31 1010.11 1010.83 1011.23 1011.83 1012.05 1012.53 1013.07 1013.43 1013.94 1014.37 1014.70 1015.17 1015.53 1016.36 1016.69 1017.25 1017.81 1017.96 1017.92 1018.06 1018.19 1018.74 1018.95 1019.34 1019.75 1020.03 1020.20 1020.57 1020.91 1021.23 1021.47 1021.70 1021.72 1021.26 1021.98 1022.11 1022.04 1022.20 1022.16 1022.01
1008.10 1008.56 1009.08 1009.82 1010.54 1011.16 1011.58 1011.99 1012.52 1013.01 1013.58 1013.99 1014.63 1014.94 1015.41 1015.72 1016.42 1016.93 1017.51 1018.03 1018.40 1018.38 1018.49 1018.64 1019.02 1019.32 1019.58 1020.23 1020.48 1020.69 1020.99 1021.39 1021.81 1021.80 1022.04 1022.15 1021.70 1022.27 1022.63 1022.81 1022.75 1022.74 1022.74
1008.42 1008.52 1009.03 1009.53 1010.46 1010.96 1011.50 1011.99 1012.44 1012.95 1013.52 1014.01 1014.73 1015.24 1015.73 1015.91 1016.44 1016.98 1017.84 1018.31 1018.74 1018.66 1018.77 1019.09 1019.32 1019.78 1020.18 1020.58 1020.83 1021.12 1021.44 1021.90 1022.34 1022.35 1022.40 1022.11 1022.33 1022.37 1022.98 1023.21 1023.26 1023.40 1023.33
1008.48 1008.41 1008.95 1009.42 1010.07 1010.78 1011.29 1011.90 1012.52 1012.87 1013.53 1013.85 1014.69 1015.34 1016.01 1016.24 1016.66 1017.14 1018.02 1018.52 1018.89 1018.85 1018.94 1019.42 1019.74 1020.32 1020.57 1020.96 1021.37 1021.53 1022.03 1022.38 1022.73 1022.97 1022.81 1022.58 1022.68 1023.02 1023.35 1023.76 1023.80 1023.90 1023.98
1007.95 1008.53 1008.50 1009.08 1009.80 1010.44 1011.02 1011.64 1012.43 1012.97 1013.34 1013.85 1014.76 1015.45 1015.98 1016.63 1016.94 1017.41 1018.02 1018.74 1019.03 1019.02 1019.05 1019.64 1020.12 1020.71 1021.11 1021.45 1021.62 1022.07 1022.50 1022.74 1022.98 1023.23 1023.26 1023.04 1022.84 1023.38 1023.56 1023.81 1024.21 1024.41 1024.56
1007.98 1008.19 1008.42 1008.56 1009.59 1010.15 1010.66 1011.48 1012.27 1013.02 1013.32 1014.06 1014.81 1015.46 1016.08 1016.77 1017.36 1017.65 1018.05 1018.86 1019.25 1019.23 1019.20 1019.89 1020.41 1020.91 1021.52 1022.06 1022.01 1022.51 1022.98 1023.20 1023.42 1023.65 1023.60 1023.49 1023.19 1023.75 1023.93 1024.14 1024.38 1024.81 1025.05
1007.95 1007.99 1008.22 1008.44 1009.31 1009.92 1010.51 1011.38 1012.19 1012.86 1013.37 1014.25 1014.88 1015.55 1016.27 1017.05 1017.73 1017.82 1018.18 1018.99 1019.54 1019.40 1019.53 1020.17 1020.72 1021.27 1021.78 1022.40 1022.61 1022.81 1023.36 1023.81 1023.92 1023.89 1024.10 1023.88 1023.76 1024.05 1024.59 1024.66 1024.70 1025.15 1025.46
1007.93 1007.55 1008.24 1008.07 1009.11 1009.75 1010.11 1011.24 1012.10 1012.75 1013.39 1014.44 1015.16 1015.86 1016.57 1017.14 1018.16 1018.57 1018.24 1019.24 1019.61 1019.97 1019.74 1020.38 1021.17 1021.46 1022.13 1022.83 1023.21 1023.55 1023.77 1024.29 1024.59 1024.50 1024.39 1024.36 1024.38 1024.40 1025.18 1025.05 1025.12 1025.49 1025.69
1007.69 1007.70 1008.03 1008.18 1009.00 1009.32 1009.62 1010.84 1011.95 1012.70 1013.52 1014.56 1015.36 1016.14 1017.00 1017.57 1018.28 1018.74 1018.53 1019.67 1019.87 1020.31 1020.19 1020.71 1021.47 1022.03 1022.71 1023.37 1023.73 1024.22 1024.43 1024.76 1025.06 1025.21 1024.82 1024.74 1024.94 1024.79 1025.52 1025.59 1025.48 1025.60 1025.91
1007.09 1007.37 1007.44 1007.76 1008.48 1009.07 1008.10 1009.83 1011.57 1012.74 1013.55 1014.73 1015.47 1016.29 1017.11 1017.91 1018.30 1018.97 1018.97 1019.87 1020.40 1020.73 1020.84 1021.45 1022.42 1023.20 1023.43 1023.85 1024.69 1024.72 1024.81 1025.30 1025.52 1025.54 1025.39 1025.13 1025.39 1025.21 1025.73 1026.00 1026.05 1025.98 1026.07
1006.56 1006.92 1007.05 1007.39 1007.94 1009.05 1008.35 1009.30 1011.07 1012.39 1013.61 1014.67 1015.26 1016.24 1017.09 1017.97 1018.46 1019.15 1019.80 1020.32 1021.15 1021.54 1022.03 1022.50 1023.21 1023.82 1024.21 1024.37 1025.09 1025.19 1025.38 1025.93 1026.06 1026.18 1025.94 1025.74 1025.90 1025.74 1026.24 1026.46 1026.49 1026.46 1026.41
1006.32 1006.39 1006.88 1007.29 1007.91 1008.84 1008.95 1009.70 1010.93 1012.35 1013.29 1014.24 1015.12 1016.13 1016.95 1017.67 1018.45 1019.25 1020.11 1020.57 1021.57 1022.02 1022.72 1023.23 1023.68 1024.29 1024.53 1025.07 1025.58 1025.65 1026.08 1026.66 1026.58 1026.93 1026.81 1026.40 1026.43 1026.39 1026.75 1026.96 1026.91 1026.94 1026.84
1005.81 1006.31 1006.97 1007.35 1007.93 1009.06 1008.28 1009.23 1010.67 1011.95 1013.16 1014.30 1014.94 1016.06 1016.91 1017.57 1018.34 1019.40 1020.08 1020.92 1021.73 1022.35 1023.30 1023.58 1023.66 1024.49 1025.33 1025.42 1026.04 1026.19 1026.74 1027.23 1027.31 1027.60 1027.70 1027.33 1026.95 1026.85 1027.22 1027.52 1027.36 1027.37 1027.25
1004.78 1005.68 1006.52 1007.16 1007.41 1008.38 1007.50 1009.17 1010.46 1011.57 1013.03 1014.01 1014.94 1015.96 1016.80 1017.59 1018.40 1019.28 1020.00 1021.03 1022.00 1022.58 1023.50 1023.99 1024.30 1024.38 1025.64 1025.88 1026.67 1026.66 1027.06 1027.76 1028.11 1028.24 1028.58 1028.32 1027.91 1027.43 1027.53 1027.93 1027.76 1027.84 1027.71
1004.55 1005.10 1005.96 1006.67 1007.41 1008.22 1007.78 1008.92 1010.44 1011.74 1012.63 1013.89 1015.03 1015.96 1016.71 1017.55 1018.56 1019.25 1019.93 1020.90 1021.95 1022.73 1023.39 1023.99 1024.53 1025.22 1025.84 1026.39 1026.97 1027.15 1027.45 1027.92 1028.67 1028.64 1029.08 1029.01 1028.77 1028.37 1028.14 1028.27 1028.34 1028.06 1028.26
1004.08 1004.72 1005.41 1006.18 1007.07 1008.12 1009.13 1008.91 1010.41 1011.47 1012.14 1013.57 1014.82 1015.93 1016.53 1017.74 1018.49 1019.16 1019.87 1021.18 1021.87 1022.58 1023.35 1023.89 1024.69 1025.27 1026.16 1026.96 1027.22 1027.68 1027.92 1028.13 1028.78 1028.79 1029.30 1029.28 1029.14 1028.94 1028.98 1028.64 1028.87 1028.71 1028.79
1003.91 1004.66 1005.37 1006.09 1006.84 1007.54 1009.12 1008.96 1010.38 1011.15 1011.91 1013.44 1014.51 1015.62 1016.76 1017.63 1018.24 1019.05 1020.11 1021.30 1021.84 1022.57 1023.34 1024.08 1024.77 1025.55 1026.12 1026.86 1027.39 1028.03 1028.22 1028.54 1029.01 1029.16 1029.33 1029.54 1029.34 1029.21 1029.42 1029.32 1029.40 1029.41 1029.15
1003.58 1004.69 1005.50 1005.84 1006.64 1007.70 1008.95 1009.25 1010.61 1011.02 1012.08 1013.17 1014.67 1015.60 1016.50 1017.40 1018.15 1018.96 1019.91 1021.07 1021.86 1022.37 1023.13 1023.84 1024.99 1025.65 1026.58 1026.96 1027.38 1028.52 1028.64 1028.82 1029.12 1029.26 1029.47 1029.57 1029.67 1029.23 1029.70 1029.67 1029.55 1029.66 1029.74
1003.99 1004.61 1005.04 1005.76 1006.62 1007.43 1008.24 1009.14 1010.10 1010.33 1012.14 1011.97 1014.48 1016.03 1016.62 1017.26 1017.88 1018.64 1019.46 1020.74 1021.39 1022.55 1023.29 1023.83 1024.52 1025.62 1026.27 1026.46 1027.15 1028.14 1028.93 1029.23 1029.16 1029.16 1029.56 1029.53 1029.83 1029.33 1029.60 1029.81 1029.63 1029.63 1029.77
1002.91 1004.18 1004.85 1005.51 1006.18 1007.06 1008.00 1009.19 1009.88 1010.99 1012.58 1012.74 1014.99 1015.88 1016.46 1017.28 1017.76 1018.22 1019.22 1020.13 1021.05 1021.92 1022.83 1023.47 1024.07 1024.71 1025.59 1026.39 1026.55 1026.84 1028.65 1028.76 1029.12 1029.30 1029.42 1029.55 1029.79 1029.59 1029.66 1029.78 1029.70 1029.52 1029.78
1002.69 1003.71 1004.73 1005.52 1006.05 1006.92 1007.76 1008.40 1009.10 1010.43 1011.81 1012.46 1014.06 1015.43 1016.28 1017.10 1017.37 1018.06 1018.97 1019.72 1020.59 1021.49 1022.25 1022.94 1023.82 1024.52 1024.80 1025.83 1026.84 1026.92 1026.86 1027.49 1028.47 1029.50 1029.47 1029.57 1029.85 1029.52 1029.55 1029.76 1029.76 1029.60 1029.66
1002.77 1003.74 1004.83 1005.55 1006.06 1006.85 1007.52 1008.01 1008.94 1010.08 1011.21 1012.49 1014.02 1015.25 1015.96 1016.79 1017.36 1018.10 1018.59 1019.26 1020.38 1021.17 1021.91 1022.67 1023.49 1024.19 1024.46 1025.27 1025.86 1026.85 1027.27 1027.65 1027.99 1028.45 1029.35 1029.66 1029.88 1029.48 1029.43 1029.53 1029.56 1029.60 1029.65
1002.96 1003.94 1004.93 1005.35 1005.83 1006.62 1007.59 1008.29 1008.78 1009.44 1010.51 1012.11 1013.30 1014.67 1015.58 1016.47 1017.39 1017.89 1018.30 1018.92 1019.65 1020.53 1021.16 1022.14 1022.86 1023.58 1024.15 1024.64 1025.32 1025.78 1026.10 1026.81 1027.58 1028.00 1028.86 1029.45 1029.72 1029.58 1029.41 1029.35 1029.42 1029.36 1029.53
Wind_Speed
6 8 17 22 23 21 22 22 22 22 23 23 24 25 24 23 23 21 20 18 18 18 17 17 18 16 19 21 22 21 21 21 20 21 21 20 23 21 20 20 19 13 21
11 15 19 23 24 23 22 23 21 21 21 23 23 25 24 22 22 19 18 17 17 19 17 17 17 16 17 19 21 19 20 20 20 21 18 19 20 19 18 18 18 16 21
14 14 14 22 22 24 22 24 23 22 21 21 22 23 23 22 21 19 18 17 17 19 18 19 18 16 17 17 18 18 20 21 20 20 17 7 12 17 17 17 17 18 19
13 16 14 22 22 23 23 23 22 22 22 22 21 22 22 23 21 19 18 17 17 19 19 19 19 18 18 18 18 20 20 21 20 18 7 6 13 18 17 17 18 19 19
13 14 13 22 23 22 23 24 23 23 22 22 21 21 22 23 21 20 18 18 17 18 19 20 20 19 19 19 19 20 21 21 18 12 7 5 8 15 17 17 16 17 18
11 12 14 22 22 22 23 24 24 24 24 23 21 21 22 23 22 21 18 18 17 19 20 20 21 20 19 19 19 21 21 19 13 7 6 12 9 20 18 18 17 17 18
10 14 13 21 24 24 24 23 24 25 25 24 22 22 21 22 22 21 20 19 19 20 21 20 21 20 19 19 20 21 20 17 7 6 6 7 11 20 19 18 17 17 18
14 13 15 23 24 25 24 24 24 24 25 24 22 22 23 21 21 22 21 19 20 21 22 21 21 20 19 19 21 21 19 16 9 7 7 7 19 19 19 18 17 17 17
10 13 12 17 21 26 26 25 24 24 24 23 22 21 20 20 21 22 21 20 20 21 22 22 21 21 20 19 22 21 19 17 8 5 5 5 19 19 19 18 18 17 16
8 12 13 13 16 17 17 24 25 24 24 23 22 21 19 19 19 21 20 20 19 22 22 23 22 21 21 20 21 21 19 16 7 6 5 7 19 19 17 18 18 17 16
6 9 10 13 12 16 18 17 21 23 24 21 18 19 17 10 9 11 14 18 19 20 22 23 21 22 21 20 19 19 16 4 5 4 3 17 18 19 16 17 17 16 16
10 8 11 14 16 16 16 17 15 15 14 12 12 12 7 7 8 9 13 16 18 18 20 23 22 21 12 5 8 12 5 6 4 3 3 17 17 19 15 15 16 16 15
11 11 13 13 16 13 16 13 9 8 9 8 12 10 9 8 8 6 7 6 5 8 5 8 10 5 7 6 4 5 6 6 3 3 7 16 16 17 15 14 14 14 14
9 10 13 14 15 15 8 12 12 10 9 9 10 13 10 7 8 6 5 5 5 4 7 6 5 6 7 8 6 7 7 5 4 3 5 13 14 16 14 13 12 12 12
12 11 13 16 16 16 16 12 12 12 11 11 11 11 10 10 9 7 6 6 5 5 6 6 6 6 7 7 6 7 7 6 7 4 3 12 13 14 12 11 11 11 11
13 11 10 10 10 12 18 18 14 12 12 11 10 11 11 10 9 8 8 7 6 5 4 5 7 6 5 6 6 6 7 5 6 6 4 3 12 12 11 9 10 9 10
12 12 12 10 13 16 19 16 12 12 12 11 10 12 12 11 10 10 8 7 6 5 7 6 6 7 6 5 6 5 6 6 4 5 3 3 4 9 11 9 9 9 8
11 12 14 11 9 4 15 13 11 11 12 11 10 10 13 12 11 10 9 8 7 7 6 6 6 6 5 5 4 4 5 5 3 4 2 2 2 4 6 9 8 9 7
14 13 13 14 15 13 9 15 13 15 12 11 11 10 13 12 12 10 9 7 8 7 6 7 3 5 5 4 5 4 4 5 3 3 2 2 2 4 3 7 8 8 7
10 12 13 13 16 14 8 10 10 10 9 9 10 10 13 10 12 11 8 9 7 7 7 5 5 4 4 5 6 4 4 3 2 2 2 1 1 3 2 4 3 4 7
9 11 11 14 15 13 10 9 7 9 10 10 7 12 13 12 13 12 9 10 7 8 8 9 5 7 3 3 5 3 3 2 1 2 1 1 2 3 1 2 2 2 3
14 13 14 15 16 14 11 9 7 11 6 10 7 8 9 12 13 12 12 10 10 7 8 9 7 4 3 4 5 3 2 2 1 2 1 2 4 2 2 2 2 3 2
13 14 14 16 17 14 13 9 9 10 6 7 7 7 8 12 12 12 12 11 10 9 8 9 8 5 5 3 1 5 4 4 2 1 2 3 4 2 2 3 2 3 3
12 12 11 13 16 13 16 13 19 10 11 7 9 8 9 11 13 12 12 12 11 8 9 8 5 3 5 5 1 1 4 3 4 1 1 2 3 3 4 3 3 2 3
15 13 12 13 14 13 13 15 13 13 10 9 9 11 9 8 10 11 12 13 11 8 9 9 8 6 3 5 4 3 2 2 2 3 2 2 2 3 3 4 3 3 3
10 13 12 14 14 14 12 11 15 18 15 13 11 10 8 8 8 10 11 11 11 11 11 10 8 7 6 4 3 3 4 4 4 4 3 2 2 3 2 3 3 3 3
Wind_Direction
223 166 181 167 160 157 153 150 145 141 139 138 139 138 134 131 127 126 121 119 119 117 118 118 113 107 101 97 92 86 80 81 79 74 67 65 63 56 56 52 46 48 59
166 167 180 170 162 160 156 148 148 146 144 143 143 140 136 133 125 125 126 123 122 120 122 121 117 119 111 104 95 91 88 84 79 70 67 62 63 58 55 52 56 59 59
154 166 176 171 167 159 158 149 152 148 148 145 143 141 134 128 130 136 128 126 124 122 123 122 118 112 112 107 99 95 88 84 79 74 63 58 73 66 58 58 57 57 62
155 164 170 173 168 162 159 153 152 149 147 146 144 140 136 136 137 135 131 129 127 126 126 125 119 123 126 111 107 102 92 87 82 73 60 42 75 66 65 66 60 56 54
158 166 166 170 169 166 161 157 154 150 148 144 143 140 143 138 141 136 133 130 129 127 129 126 123 110 118 112 106 100 95 89 82 77 81 75 82 77 72 67 58 54 56
165 166 169 169 173 167 164 162 157 153 150 146 141 145 148 143 142 135 135 132 134 132 133 131 125 123 120 119 110 101 97 90 77 68 56 79 75 79 69 64 64 61 63
185 173 173 175 174 168 166 163 160 155 149 140 147 148 150 146 141 136 136 136 138 136 134 134 124 122 123 119 109 103 97 91 80 65 67 75 81 81 76 67 64 62 59
173 187 178 177 180 172 168 163 160 155 148 143 149 154 149 148 144 138 139 141 141 138 134 132 128 126 121 117 110 104 99 92 74 69 65 79 90 86 83 78 70 63 59
187 179 187 176 182 178 168 162 160 156 147 146 150 155 149 149 145 143 140 143 144 141 136 133 131 126 123 118 111 107 101 94 81 75 72 81 92 88 86 82 75 66 62
191 191 181 174 180 176 165 159 159 153 144 149 154 148 144 142 148 145 139 144 146 143 138 133 132 128 123 122 115 108 100 88 76 77 63 91 95 90 85 84 80 74 66
221 174 189 165 187 174 163 161 157 152 141 151 145 138 137 136 141 136 132 143 145 141 138 132 133 129 122 120 113 106 96 80 70 66 78 98 96 93 88 87 84 78 73
197 186 182 176 182 183 163 156 152 155 146 146 141 129 116 111 127 131 128 140 145 146 136 135 133 123 103 89 104 97 88 84 76 64 88 104 101 98 93 90 89 86 79
194 196 178 170 180 204 163 147 146 155 139 135 131 128 126 129 128 128 129 129 128 108 115 113 98 95 102 102 90 96 91 79 65 48 103 106 104 100 98 93 89 89 86
183 197 189 172 174 174 173 144 151 150 139 146 142 136 136 136 131 125 115 108 96 86 95 94 101 99 91 95 103 93 80 79 69 38 87 103 101 97 95 94 92 88 87
193 183 185 178 185 186 163 154 152 151 151 148 145 143 147 144 142 131 127 112 104 103 112 116 116 113 106 102 91 97 87 77 70 47 23 92 96 92 88 89 86 84 82
188 183 174 176 202 210 162 157 156 154 147 149 147 150 148 145 142 139 130 120 113 116 110 125 125 121 106 110 98 95 93 80 78 66 41 63 103 93 86 78 78 74 71
203 178 162 163 191 173 158 152 150 153 150 151 152 149 143 142 145 145 133 129 128 116 119 113 99 102 109 100 100 96 100 86 82 77 46 33 53 79 88 77 77 64 61
185 175 175 177 135 163 156 151 150 150 153 151 150 148 146 140 143 138 136 134 135 128 130 126 132 103 108 109 120 110 104 97 100 92 57 39 40 51 62 84 75 70 52
176 170 171 169 168 157 215 155 156 161 153 152 147 151 146 145 146 139 137 133 141 135 131 138 98 118 124 108 112 103 96 110 132 109 138 102 82 79 49 74 71 65 47
166 166 168 168 166 150 151 152 151 150 139 142 147 149 149 149 144 137 136 139 140 135 132 117 123 85 119 131 103 81 89 97 110 149 173 216 121 95 88 85 59 22 43
131 148 162 156 154 150 149 143 145 145 136 131 144 143 153 153 150 147 141 145 146 150 146 138 111 125 95 147 105 54 44 79 183 195 197 196 220 137 162 117 109 60 35
164 158 160 158 164 167 156 153 146 135 132 117 133 150 152 156 155 153 149 157 150 134 139 151 144 136 112 193 127 115 122 342 282 202 194 210 232 154 177 209 164 138 102
161 162 164 167 165 162 153 141 114 102 116 106 131 155 157 164 160 155 156 155 153 153 162 165 158 158 139 185 49 138 111 207 139 23 223 224 220 183 198 224 224 166 162
165 162 164 172 168 172 161 155 154 150 163 157 163 168 163 171 165 157 158 157 158 157 162 169 162 162 129 151 156 77 70 127 152 112 314 256 238 205 204 227 232 204 176
159 169 173 171 167 158 171 162 162 160 154 145 152 161 165 165 168 165 162 153 162 165 163 169 160 175 156 145 145 150 112 76 76 124 175 254 299 242 226 215 213 199 181
170 160 170 171 165 159 163 165 175 159 147 154 155 160 164 166 164 172 167 169 168 169 167 176 175 173 168 134 146 160 154 159 181 146 121 187 204 245 245 222 208 200 199